[[{"header":{"parameterUnit":"m.s-1","parameterCategory":2,"la1":30.2991,"la2":30.254,"lo1":-89.0895,"lo2":-89.0444,"dy":0.0017,"dx":0.0017,"nx":28,"ny":28,"refTime":"2024-06-06T09:00:00:Z","depth":"0","parameterNumber":2,"parameterNumberName":"U-component_of_CURRENTS"},"data":[0,0,0,0,0,0,0,0,0,0,0,0,0,0,0,0,0,0,0,0,0,0,0,0,0,0,0,0,0,0,0,0,0,0,0,0,0,0,0,0,0,0,0,0,0,0,0,0,0,0,0,0,0,0,0,0,0,0,0.416,0.4161,0,0.4188,0.4188,0.4188,0.4164,0.4163,0.4163,0.4162,0.4167,0.4168,0.4169,0,0,0,0,0,0,0,0,0,0,0,0,0,0.4108,0.4108,0.416,0.4161,0.4162,0.4188,0.4188,0.4188,0.4164,0.4163,0.4163,0.4162,0.4167,0.4168,0.4169,0,0,0,0,0,0,0,0,0,0,0,0,0,0.4129,0.4108,0.416,0.4156,0.4156,0.4189,0.4188,0.4188,0.4164,0.4163,0.4163,0.4162,0.4167,0.4168,0.4169,0.4194,0,0,0.4172,0.4173,0,0,0,0,0,0,0,0,0.4127,0.413,0.4156,0.4156,0.4157,0.4176,0.4172,0.4191,0.4165,0.4157,0.4162,0.4161,0.4172,0.4172,0.4174,0.4195,0.4195,0.4172,0.4173,0.4174,0.4174,0,0,0,0,0,0,0,0.4126,0.4129,0.4167,0.4157,0.4157,0.4161,0.4162,0.4175,0.4165,0.4157,0.4157,0.4167,0.4171,0.4173,0.4174,0.4195,0.4172,0.4173,0.4174,0.4174,0.4319,0.4322,0,0,0,0,0,0,0.4131,0.4127,0.4166,0.4168,0.4144,0.4163,0.4164,0.4167,0.4166,0.4166,0.4168,0.4166,0.4171,0.4173,0.4174,0.4271,0.4174,0.4175,0.4175,0.4316,0.4319,0.4323,0,0,0,0,0,0,0.413,0.4134,0.4165,0.4152,0.4157,0.4165,0.4168,0.4168,0.4177,0.4175,0.4173,0.4178,0.4171,0.4172,0.4203,0.4268,0.4175,0.4176,0.4312,0.4317,0.4321,0.4421,0,0,0,0,0,0,0.4128,0.4133,0.4136,0.4152,0.4158,0.4196,0.417,0.417,0.4186,0.4184,0.4183,0.4182,0.417,0.4201,0.4204,0.4268,0.4177,0.4308,0.4314,0.432,0.4414,0.4429,0.4442,0,0,0,0,0,0.4126,0.4141,0.4136,0.4141,0.4162,0.4197,0.4201,0.42,0.4188,0.4201,0.4204,0.4182,0.4242,0.4204,0.4206,0.4272,0.4305,0.4312,0.4319,0.4408,0.4426,0.4441,0,0,0,0,0,0,0.4117,0.414,0.4135,0.4155,0.4178,0.4195,0.4211,0.421,0.4223,0.4221,0.4207,0.4208,0.4266,0.4256,0.4215,0.4335,0.4277,0.4285,0.4344,0.4361,0.4374,0.4401,0.4178,0,0,0,0,0,0.4118,0.4136,0.4158,0.4175,0.4189,0.4201,0.4214,0.4219,0.4234,0.4237,0.4239,0.4257,0.4299,0.4315,0.4337,0.4391,0.4411,0.4442,0.4456,0.4468,0.4494,0.4621,0.4649,0.4346,0.4346,0.4346,0,0,0.4119,0.4136,0.4144,0.4175,0.419,0.4225,0.4206,0.4238,0.4275,0.4239,0.4283,0.4299,0.4324,0.4391,0.4418,0.4389,0.4553,0.4477,0.4486,0.4507,0.4631,0.4661,0.4687,0.4351,0.435,0.435,0,0,0.4137,0.4147,0.4168,0.4195,0.4231,0.425,0.4264,0.429,0.4309,0.435,0.4357,0.442,0.4439,0.4501,0.4528,0.4636,0.4621,0.4638,0.4731,0.4853,0.488,0.4903,0.4911,0.4935,0.4647,0.4647,0.4647,0,0.4134,0.4164,0.4181,0.4215,0.4246,0.4265,0.4303,0.4338,0.4372,0.4415,0.4374,0.4499,0.4506,0.4649,0.4682,0.4672,0.4695,0.4659,0.4873,0.4897,0.4919,0.4922,0.4947,0.4653,0.4652,0.4651,0.4651,0,0.4169,0.4197,0.422,0.4268,0.4305,0.4346,0.4398,0.4444,0.4462,0.4502,0.4623,0.4654,0.4737,0.4759,0.4744,0.4926,0.487,0.4873,0.4828,0.4956,0.4949,0.4974,0.4661,0.4659,0.4657,0.4656,0,0,0.4143,0.4225,0.423,0.4261,0.4338,0.4368,0.4462,0.4556,0.4632,0.4684,0.4798,0.4892,0.4922,0.496,0.4984,0.5086,0.5232,0.5045,0.5049,0.5047,0.543,0.5344,0.5359,0.5277,0.5283,0.5288,0.5341,0,0.4161,0.4222,0.4271,0.4342,0.4379,0.4451,0.4539,0.4632,0.4706,0.482,0.4923,0.5025,0.4999,0.5051,0.5162,0.5227,0.5309,0.5212,0.5312,0.5314,0.5221,0.5392,0.524,0.5274,0.5364,0.5368,0.5371,0,0.4169,0.4213,0.4276,0.4383,0.4409,0.4465,0.4614,0.4694,0.4877,0.4946,0.5094,0.5157,0.5335,0.5281,0.5483,0.542,0.5438,0.5469,0.5472,0.5384,0.5277,0.5174,0.5313,0.5172,0.5407,0.5404,0.5401,0,0.412,0.4216,0.4264,0.4297,0.4423,0.4485,0.4562,0.4729,0.4838,0.5038,0.5146,0.5334,0.5444,0.5548,0.5604,0.5561,0.5791,0.5734,0.5666,0.5653,0.5542,0.5512,0.5561,0.5888,0.5888,0.5887,0.5887,0,0.4112,0.415,0.4242,0.4268,0.4353,0.4451,0.4579,0.4694,0.4902,0.5057,0.5208,0.5371,0.5529,0.5664,0.5679,0.5755,0.5858,0.5724,0.5709,0.5563,0.5535,0.5419,0.5351,0.5889,0.5889,0.5888,0.5888,0,0.4049,0.4109,0.417,0.429,0.4327,0.4384,0.4573,0.4683,0.488,0.5096,0.5176,0.5444,0.5614,0.5721,0.588,0.5848,0.576,0.5902,0.566,0.5619,0.5388,0.5331,0.517,0.502,0.5834,0.5833,0.5832,0,0.4023,0.4042,0.4149,0.4188,0.4242,0.4345,0.4433,0.4643,0.4782,0.5134,0.5246,0.5492,0.5648,0.5834,0.5852,0.5879,0.5708,0.5712,0.5626,0.5402,0.533,0.5092,0.496,0.5479,0.5475,0.5472,0.5469,0,0.3978,0.4013,0.4064,0.414,0.422,0.4305,0.4452,0.4562,0.4832,0.5018,0.5275,0.5428,0.5652,0.5653,0.5707,0.5703,0.5449,0.5646,0.5531,0.5175,0.4811,0.4647,0.5331,0.5442,0.5445,0.5447,0.5448,0.5449,0.3942,0.3966,0.4036,0.4099,0.418,0.4258,0.4284,0.4467,0.4646,0.487,0.5122,0.5244,0.5416,0.5495,0.5447,0.5288,0.5253,0.5149,0.5125,0.4922,0.4713,0.5287,0.5319,0.5321,0.5322,0.5324,0.5325,0,0.3896,0.3936,0.3994,0.4062,0.4094,0.4164,0.4287,0.4286,0.4399,0.4632,0.4788,0.4913,0.4938,0.5005,0.5,0.4826,0.458,0.4683,0.4349,0.4268,0.4907,0.4831,0.462,0.462,0.462,0.462,0.462,0.462,0.3883,0.3909,0.3936,0.3956,0.3984,0.396,0.3976,0.3988,0.4093,0.4142,0.4192,0.4328,0.4606,0.4713,0.4571,0.4456,0.4107,0.3926,0.3879,0.4384,0.4424,0.4463,0.4378,0.4075,0.4074,0.3074,0.3067,0.3061]},{"header":{"parameterUnit":"m.s-1","parameterCategory":2,"la1":30.2991,"la2":30.254,"lo1":-89.0895,"lo2":-89.0444,"dy":0.0017,"dx":0.0017,"nx":28,"ny":28,"refTime":"2024-06-06T09:00:00:Z","depth":"0","parameterNumber":3,"parameterNumberName":"V-component_of_CURRENTS"},"data":[0,0,0,0,0,0,0,0,0,0,0,0,0,0,0,0,0,0,0,0,0,0,0,0,0,0,0,0,0,0,0,0,0,0,0,0,0,0,0,0,0,0,0,0,0,0,0,0,0,0,0,0,0,0,0,0,0,0,0.021,0.021,0,0.0128,0.0126,0.0125,0.0069,0.0069,0.0068,0.0068,-0.0028,-0.003,-0.0032,0,0,0,0,0,0,0,0,0,0,0,0,0,0.0249,0.0249,0.021,0.0209,0.0209,0.0128,0.0126,0.0125,0.0069,0.0069,0.0068,0.0068,-0.0027,-0.003,-0.0033,0,0,0,0,0,0,0,0,0,0,0,0,0,0.0204,0.0249,0.021,0.0173,0.0169,0.0128,0.0126,0.0125,0.0069,0.0069,0.0068,0.0068,-0.0026,-0.0029,-0.0033,-0.0049,0,0,-0.0044,-0.0045,0,0,0,0,0,0,0,0,0.0207,0.0202,0.0179,0.0175,0.0171,0.011,0.0105,0.0067,0.0069,0.0104,0.0068,0.0068,0.0019,0.0012,-0.0006,-0.0054,-0.0058,-0.0044,-0.0046,-0.0048,-0.0049,0,0,0,0,0,0,0,0.021,0.0205,0.0175,0.0178,0.0173,0.0136,0.013,0.0097,0.0062,0.0101,0.0097,0.0092,0.0016,-0.0003,-0.0009,-0.0059,-0.0044,-0.0047,-0.0049,-0.0051,-0.0118,-0.0118,0,0,0,0,0,0,0.0229,0.0209,0.0178,0.0173,0.0191,0.0136,0.0129,0.0128,0.0063,0.0053,0.0093,0.009,0.0003,-0.0005,-0.0013,-0.0007,-0.0048,-0.0051,-0.0053,-0.0119,-0.0118,-0.0118,0,0,0,0,0,0,0.023,0.0227,0.0181,0.019,0.0182,0.0136,0.0136,0.0127,0.0114,0.0057,0.0046,0.0091,0.0003,-0.0008,-0.0032,-0.0012,-0.0053,-0.0056,-0.0119,-0.0119,-0.0118,-0.0013,0,0,0,0,0,0,0.0232,0.0228,0.0234,0.0192,0.0182,0.0173,0.0136,0.0125,0.0112,0.0108,0.0052,0.0042,0.0002,-0.0027,-0.0036,-0.0017,-0.0059,-0.012,-0.0119,-0.0118,-0.0017,-0.0009,-0.0002,0,0,0,0,0,0.0234,0.025,0.0234,0.0231,0.0192,0.0174,0.0166,0.0129,0.0113,0.0115,0.0075,0.0044,-0.0029,-0.0029,-0.004,-0.0022,-0.012,-0.0119,-0.0118,-0.002,-0.0011,-0.0002,0,0,0,0,0,0,0.027,0.0245,0.0227,0.0234,0.0212,0.0166,0.0164,0.014,0.0108,0.0106,0.0048,0.0036,0.0019,-0.0017,-0.0016,-0.0042,-0.008,-0.0081,-0.0002,0.0007,0.0014,0.005,-0.0062,0,0,0,0,0,0.0281,0.0288,0.0253,0.0261,0.0252,0.021,0.0197,0.0176,0.0143,0.0129,0.0088,0.0046,0.0012,-0.0001,-0.0042,-0.005,-0.008,-0.0048,-0.004,-0.0033,-0.0013,-0.003,-0.0021,-0.0115,-0.0115,-0.0115,0,0,0.0298,0.0285,0.0288,0.0269,0.0246,0.0251,0.0201,0.0195,0.0203,0.0124,0.012,0.0068,0.0012,-0.0001,-0.0011,-0.0025,-0.0028,-0.0032,-0.0026,-0.0009,-0.0028,-0.0018,-0.001,-0.0115,-0.0115,-0.0115,0,0,0.034,0.0323,0.0343,0.0331,0.031,0.0287,0.0292,0.0253,0.024,0.0224,0.017,0.0135,0.0083,0.0051,0.0028,0.0053,0.0007,0.0037,0.0112,0.0096,0.0105,0.0112,0.0067,0.007,0.0048,0.0048,0.0048,0,0.0359,0.0382,0.0346,0.0362,0.0367,0.0312,0.034,0.0318,0.0277,0.0278,0.0238,0.0168,0.011,0.0109,0.0109,0.0072,0.0049,0.0087,0.0109,0.0115,0.0121,0.0074,0.0075,0.0053,0.0053,0.0052,0.0052,0,0.0416,0.0433,0.0446,0.0452,0.0451,0.0466,0.0437,0.0435,0.0406,0.0379,0.0362,0.028,0.0247,0.0214,0.0165,0.018,0.0144,0.0117,0.0095,0.0137,0.0084,0.0083,0.0061,0.0059,0.0057,0.0056,0,0,0.0466,0.0484,0.0491,0.052,0.0505,0.0519,0.0535,0.0541,0.0573,0.0506,0.0543,0.0448,0.0404,0.0374,0.0309,0.0284,0.0275,0.0227,0.0224,0.0199,0.0229,0.0205,0.0201,0.0263,0.0264,0.0265,0.017,0,0.0525,0.0588,0.0577,0.0646,0.0678,0.0649,0.0679,0.0675,0.0654,0.0673,0.0591,0.0587,0.0468,0.0464,0.0417,0.0325,0.0283,0.0303,0.0179,0.0175,0.0162,0.0204,0.0246,0.0167,0.0169,0.0169,0.0169,0,0.059,0.0628,0.0707,0.0765,0.0778,0.0812,0.0867,0.0886,0.0882,0.0869,0.0838,0.0774,0.0724,0.0624,0.048,0.0504,0.0376,0.0285,0.0279,0.0228,0.0152,0.0126,0.0165,-0.0079,0.0167,0.0168,0.0168,0,0.0663,0.0725,0.0801,0.0817,0.0865,0.091,0.0939,0.0951,0.1005,0.1008,0.1053,0.0951,0.0943,0.0777,0.0568,0.0536,0.0415,0.0343,0.019,0.0185,0.0182,0.0176,-0.001,0.0242,0.0242,0.0242,0.0243,0,0.0738,0.0799,0.085,0.0894,0.101,0.1005,0.1122,0.1132,0.1186,0.1293,0.1172,0.1241,0.0989,0.0883,0.065,0.0435,0.0471,0.0218,0.0175,0.0215,0.0214,-0.0031,-0.0161,0.0239,0.0239,0.024,0.0241,0,0.0809,0.0834,0.0932,0.1009,0.105,0.1134,0.1258,0.1341,0.1373,0.1519,0.154,0.1476,0.1341,0.1063,0.0805,0.0572,0.0217,0.0249,0.0299,0.0263,-0.012,-0.0243,-0.0464,-0.0555,0.0064,0.0063,0.0062,0,0.0849,0.0907,0.1027,0.1105,0.1152,0.1276,0.1373,0.1434,0.1546,0.1683,0.1779,0.1699,0.1689,0.128,0.0849,0.0445,0.0204,0.0202,0.0135,-0.0119,-0.029,-0.039,-0.0457,0.0153,0.0153,0.0153,0.0153,0,0.0932,0.0974,0.106,0.1221,0.1342,0.149,0.1641,0.1764,0.188,0.2028,0.2198,0.2208,0.1826,0.145,0.0879,0.0589,0.0056,0.0189,-0.0072,-0.0224,-0.0345,-0.0458,0.0159,0.0153,0.0153,0.0153,0.0153,0.0153,0.0999,0.1077,0.1195,0.1354,0.1499,0.17,0.1852,0.2044,0.2279,0.2531,0.2505,0.2581,0.201,0.1246,0.0809,0.0041,0.0024,-0.0195,-0.0323,-0.0403,-0.0485,0.0122,0.0067,0.0066,0.0066,0.0065,0.0065,0,0.1081,0.1176,0.1321,0.1518,0.1693,0.1757,0.2031,0.2212,0.253,0.275,0.2904,0.2677,0.1972,0.1225,0.0185,-0.0366,-0.0555,-0.0664,-0.0803,-0.0847,-0.0302,-0.0292,-0.0427,-0.0427,-0.0427,-0.0427,-0.0426,-0.0426,0.1129,0.1277,0.1354,0.1651,0.1799,0.206,0.2231,0.2523,0.274,0.3029,0.3096,0.3077,0.2516,0.0671,-0.0591,-0.0879,-0.123,-0.1316,-0.1512,-0.1162,-0.1129,-0.1097,-0.112,-0.1427,-0.1428,-0.1973,-0.1979,-0.1983]}],[{"header":{"parameterUnit":"m.s-1","parameterCategory":2,"la1":30.2991,"la2":30.254,"lo1":-89.0895,"lo2":-89.0444,"dy":0.0017,"dx":0.0017,"nx":28,"ny":28,"refTime":"2024-06-06T09:00:00:Z","depth":"2","parameterNumber":2,"parameterNumberName":"U-component_of_CURRENTS"},"data":[0,0,0,0,0,0,0,0,0,0,0,0,0,0,0,0,0,0,0,0,0,0,0,0,0,0,0,0,0,0,0,0,0,0,0,0,0,0,0,0,0,0,0,0,0,0,0,0,0,0,0,0,0,0,0,0,0,0,0.3577,0.3578,0,0.3617,0.3617,0.3617,0.3615,0.3615,0.3614,0.3614,0.3628,0.3629,0.3629,0,0,0,0,0,0,0,0,0,0,0,0,0,0.3507,0.3508,0.3577,0.3578,0.3579,0.3617,0.3617,0.3617,0.3615,0.3615,0.3614,0.3614,0.3628,0.3629,0.3629,0,0,0,0,0,0,0,0,0,0,0,0,0,0.3537,0.3508,0.3577,0.3585,0.3587,0.3617,0.3617,0.3617,0.3615,0.3615,0.3614,0.3614,0.3628,0.3629,0.363,0.364,0,0,0.3632,0.3632,0,0,0,0,0,0,0,0,0.3536,0.3539,0.3583,0.3585,0.3586,0.3614,0.3598,0.3625,0.3615,0.3599,0.3614,0.3614,0.3624,0.3625,0.3628,0.3641,0.3642,0.3632,0.3633,0.3633,0.3633,0,0,0,0,0,0,0,0.3533,0.3538,0.3588,0.3584,0.3586,0.3591,0.3594,0.3603,0.3609,0.3601,0.3602,0.3613,0.3624,0.3627,0.3628,0.3642,0.3632,0.3633,0.3633,0.3634,0.3736,0.3738,0,0,0,0,0,0,0.3537,0.3536,0.3587,0.359,0.3565,0.3592,0.3596,0.3602,0.361,0.3612,0.3614,0.3613,0.3626,0.3627,0.3629,0.3709,0.3633,0.3634,0.3634,0.3734,0.3736,0.3739,0,0,0,0,0,0,0.3535,0.3541,0.3586,0.3567,0.3574,0.3594,0.3601,0.3603,0.3621,0.362,0.3621,0.3631,0.3626,0.3627,0.366,0.3707,0.3634,0.3635,0.3731,0.3735,0.3738,0.3826,0,0,0,0,0,0,0.3533,0.354,0.3549,0.3568,0.3575,0.3618,0.3602,0.3604,0.363,0.363,0.3636,0.3636,0.3625,0.3659,0.3661,0.3706,0.3636,0.3728,0.3733,0.3737,0.382,0.3832,0.3842,0,0,0,0,0,0.353,0.3548,0.3549,0.3555,0.3585,0.362,0.3624,0.3634,0.3631,0.3647,0.3656,0.3636,0.3687,0.3662,0.3663,0.371,0.3726,0.3731,0.3736,0.3815,0.383,0.3842,0,0,0,0,0,0,0.3521,0.355,0.3551,0.3575,0.3602,0.3621,0.3641,0.3647,0.3666,0.3669,0.366,0.3662,0.3711,0.3699,0.3671,0.3753,0.3706,0.3712,0.3766,0.3779,0.3789,0.3813,0.3636,0,0,0,0,0,0.3523,0.3544,0.3571,0.3592,0.3608,0.3626,0.3643,0.3653,0.3673,0.3681,0.3688,0.3702,0.3732,0.3744,0.376,0.38,0.3818,0.3833,0.3844,0.3853,0.3875,0.3957,0.3977,0.3755,0.3755,0.3755,0,0,0.3525,0.3545,0.3556,0.3592,0.3611,0.3645,0.3635,0.3672,0.3707,0.368,0.3728,0.374,0.3751,0.3802,0.3823,0.3797,0.3923,0.386,0.3867,0.3884,0.3964,0.3986,0.4005,0.3759,0.3758,0.3758,0,0,0.354,0.3559,0.358,0.3609,0.365,0.3669,0.3685,0.3718,0.3741,0.3784,0.3788,0.3833,0.3853,0.3888,0.3904,0.3985,0.3979,0.3986,0.4059,0.4139,0.4158,0.4175,0.4214,0.4234,0.399,0.399,0.399,0,0.3539,0.3569,0.3593,0.3626,0.3658,0.3684,0.3721,0.3755,0.3795,0.3831,0.381,0.3899,0.3902,0.3994,0.4023,0.4013,0.4042,0.4006,0.4154,0.4172,0.4188,0.4223,0.4244,0.3995,0.3995,0.3994,0.3994,0,0.3568,0.36,0.3622,0.3671,0.3709,0.3748,0.38,0.3845,0.3872,0.3906,0.3998,0.4018,0.4073,0.4087,0.4078,0.4202,0.4181,0.4159,0.4121,0.4216,0.4246,0.4267,0.4002,0.4,0.3999,0.3998,0,0,0.3542,0.3624,0.363,0.3658,0.3737,0.3765,0.385,0.393,0.399,0.4042,0.4131,0.4195,0.4216,0.4238,0.4248,0.4318,0.4445,0.4293,0.4295,0.4332,0.4607,0.4523,0.4535,0.4456,0.4461,0.4464,0.4578,0,0.3555,0.3612,0.3663,0.3726,0.376,0.3831,0.3904,0.3985,0.4053,0.4145,0.4216,0.4296,0.4272,0.4311,0.4384,0.4437,0.4506,0.4416,0.451,0.4513,0.4428,0.4559,0.4198,0.4264,0.4597,0.4601,0.4603,0,0.3559,0.36,0.366,0.3752,0.3776,0.3828,0.3951,0.4023,0.4171,0.423,0.4341,0.4393,0.4526,0.4479,0.4637,0.4583,0.4611,0.4639,0.4643,0.4552,0.4468,0.4227,0.4288,0.4636,0.4634,0.4631,0.4629,0,0.3506,0.3595,0.364,0.3672,0.3783,0.3838,0.3911,0.405,0.4135,0.4304,0.4388,0.4526,0.4616,0.4695,0.4758,0.4714,0.4916,0.4851,0.4801,0.4792,0.4498,0.4457,0.4971,0.4971,0.4971,0.497,0.497,0,0.3491,0.3524,0.3619,0.3642,0.3714,0.3807,0.3911,0.4011,0.4178,0.429,0.4431,0.4546,0.4683,0.4805,0.4826,0.489,0.4973,0.4853,0.4841,0.4515,0.4477,0.4802,0.4781,0.4974,0.4974,0.4973,0.4972,0,0.3423,0.3486,0.354,0.3651,0.3689,0.3742,0.3905,0.3977,0.4154,0.4314,0.4383,0.461,0.4766,0.4876,0.5015,0.4976,0.5036,0.5029,0.4625,0.4565,0.4833,0.4816,0.4985,0.4984,0.4983,0.4982,0.4981,0,0.3395,0.3413,0.3519,0.3551,0.3605,0.3699,0.3762,0.3944,0.4037,0.4332,0.4404,0.4641,0.4766,0.4952,0.4944,0.4988,0.5055,0.4652,0.4506,0.4876,0.4848,0.4831,0.4816,0.4137,0.4129,0.4123,0.4118,0,0.3339,0.3377,0.3418,0.3481,0.3544,0.3608,0.3725,0.3795,0.4014,0.4159,0.4359,0.4498,0.4709,0.4614,0.4698,0.4658,0.4615,0.4526,0.5052,0.4196,0.4088,0.4055,0.4066,0.4061,0.4067,0.4071,0.4074,0.4077,0.3291,0.3302,0.3354,0.3396,0.3459,0.3494,0.3494,0.3626,0.3743,0.3909,0.4154,0.4236,0.4332,0.4287,0.4174,0.408,0.4385,0.4167,0.4181,0.4204,0.4092,0.3989,0.3921,0.3926,0.393,0.3933,0.3936,0,0.3211,0.3231,0.3264,0.3293,0.3277,0.3367,0.3435,0.3394,0.3436,0.3643,0.3778,0.358,0.357,0.3649,0.3439,0.345,0.336,0.3289,0.3133,0.3196,0.325,0.3083,0.2648,0.2643,0.2638,0.2634,0,0,0.3176,0.3154,0.3154,0.3088,0.3104,0.3032,0.3025,0.2999,0.3076,0.3084,0.312,0.3436,0.3586,0.3079,0.302,0.2791,0.2953,0.2679,0.373,0.3613,0.366,0.3797,0.3617,0,0,0,0,0]},{"header":{"parameterUnit":"m.s-1","parameterCategory":2,"la1":30.2991,"la2":30.254,"lo1":-89.0895,"lo2":-89.0444,"dy":0.0017,"dx":0.0017,"nx":28,"ny":28,"refTime":"2024-06-06T09:00:00:Z","depth":"2","parameterNumber":3,"parameterNumberName":"V-component_of_CURRENTS"},"data":[0,0,0,0,0,0,0,0,0,0,0,0,0,0,0,0,0,0,0,0,0,0,0,0,0,0,0,0,0,0,0,0,0,0,0,0,0,0,0,0,0,0,0,0,0,0,0,0,0,0,0,0,0,0,0,0,0,0,0.0129,0.0129,0,0.0058,0.0057,0.0056,0.0009,0.0009,0.0008,0.0008,-0.0074,-0.0076,-0.0078,0,0,0,0,0,0,0,0,0,0,0,0,0,0.0163,0.0163,0.0129,0.0129,0.0128,0.0058,0.0057,0.0056,0.0009,0.0009,0.0008,0.0008,-0.0073,-0.0075,-0.0078,0,0,0,0,0,0,0,0,0,0,0,0,0,0.0124,0.0163,0.0129,0.0097,0.0093,0.0059,0.0057,0.0056,0.0009,0.0009,0.0008,0.0008,-0.0072,-0.0075,-0.0078,-0.0091,0,0,-0.0087,-0.0089,0,0,0,0,0,0,0,0,0.0127,0.0123,0.0102,0.0099,0.0095,0.0043,0.0039,0.0007,0.0009,0.0039,0.0008,0.0008,-0.0034,-0.0041,-0.0055,-0.0095,-0.0099,-0.0088,-0.009,-0.0091,-0.0092,0,0,0,0,0,0,0,0.013,0.0126,0.01,0.0102,0.0097,0.0065,0.006,0.0032,0.0004,0.0037,0.0033,0.0028,-0.0037,-0.0052,-0.0058,-0.01,-0.0088,-0.009,-0.0092,-0.0093,-0.0145,-0.0144,0,0,0,0,0,0,0.0145,0.0128,0.0102,0.0098,0.0112,0.0065,0.0059,0.0059,0.0004,-0.0004,0.0028,0.0026,-0.0047,-0.0054,-0.0061,-0.0053,-0.0091,-0.0094,-0.0095,-0.0145,-0.0144,-0.0144,0,0,0,0,0,0,0.0146,0.0144,0.0105,0.0112,0.0105,0.0065,0.0065,0.0058,0.0048,-0.0002,-0.0011,0.0028,-0.0048,-0.0056,-0.0076,-0.0057,-0.0095,-0.0098,-0.0145,-0.0145,-0.0144,-0.0054,0,0,0,0,0,0,0.0147,0.0144,0.015,0.0114,0.0105,0.0098,0.0066,0.0057,0.0046,0.0042,-0.0006,-0.0014,-0.0048,-0.0072,-0.0079,-0.0062,-0.01,-0.0146,-0.0145,-0.0144,-0.0058,-0.0051,-0.0044,0,0,0,0,0,0.0149,0.0164,0.0151,0.0147,0.0114,0.0099,0.0092,0.0061,0.0046,0.005,0.0015,-0.0012,-0.0072,-0.0074,-0.0083,-0.0066,-0.0146,-0.0145,-0.0144,-0.0061,-0.0052,-0.0045,0,0,0,0,0,0,0.0181,0.016,0.0144,0.0151,0.0132,0.0092,0.0092,0.007,0.0044,0.0042,-0.0007,-0.0018,-0.0031,-0.0061,-0.0062,-0.008,-0.0113,-0.0114,-0.0047,-0.0039,-0.0032,-0.0003,-0.0103,0,0,0,0,0,0.0192,0.0199,0.0168,0.0175,0.0168,0.0131,0.0121,0.0102,0.0074,0.0063,0.0028,-0.0008,-0.0035,-0.0046,-0.0079,-0.0085,-0.0116,-0.0081,-0.0074,-0.0068,-0.0051,-0.0084,-0.0078,-0.0141,-0.0141,-0.0141,0,0,0.0206,0.0196,0.0199,0.0183,0.0163,0.0169,0.0124,0.0119,0.0128,0.0058,0.0057,0.0012,-0.0034,-0.0043,-0.0051,-0.0064,-0.0069,-0.0067,-0.0061,-0.0047,-0.0082,-0.0076,-0.007,-0.014,-0.014,-0.014,0,0,0.0245,0.023,0.0249,0.0239,0.0221,0.0202,0.0206,0.0173,0.0161,0.015,0.0103,0.0074,0.0031,0.0005,-0.0014,0.0011,-0.0037,-0.0003,0.0062,0.0031,0.0036,0.004,0.0002,0.0002,0.0007,0.0007,0.0007,0,0.0262,0.0285,0.0252,0.0268,0.0273,0.0225,0.0251,0.0232,0.0198,0.0198,0.0163,0.0103,0.0057,0.0056,0.0058,0.0028,-0.0001,0.0038,0.0041,0.0045,0.0048,0.0007,0.0007,0.0011,0.0011,0.001,0.001,0,0.0314,0.0332,0.0344,0.0352,0.0351,0.0366,0.0341,0.034,0.0314,0.029,0.0274,0.0205,0.0173,0.0149,0.0109,0.0113,0.0081,0.005,0.0027,0.006,0.0015,0.0012,0.0018,0.0016,0.0015,0.0014,0,0,0.0359,0.0378,0.0384,0.0412,0.0401,0.0414,0.0431,0.0437,0.0462,0.0404,0.0429,0.0355,0.0309,0.0285,0.0227,0.0197,0.0177,0.0141,0.0137,0.0114,0.0105,0.007,0.0063,0.0148,0.0148,0.0148,0.0063,0,0.0413,0.0472,0.0464,0.0529,0.056,0.0534,0.0562,0.0558,0.0537,0.0544,0.0471,0.0463,0.0365,0.0357,0.0307,0.0215,0.0176,0.0203,0.0067,0.0063,0.0037,0.0061,0.0093,0.0019,0.006,0.006,0.0059,0,0.0472,0.0508,0.0582,0.0637,0.0649,0.0681,0.0727,0.0745,0.0732,0.0715,0.0677,0.0613,0.056,0.0475,0.033,0.0353,0.0239,0.0157,0.0151,0.0091,0.0025,-0.0009,0.0012,0.0054,0.0055,0.0055,0.0055,0,0.0536,0.0595,0.0666,0.0681,0.0728,0.0768,0.0796,0.0802,0.0845,0.0832,0.0857,0.0754,0.0732,0.0576,0.0384,0.0362,0.0225,0.017,0.003,0.0025,0.0012,0.0006,0.0073,0.0073,0.0073,0.0073,0.0074,0,0.0604,0.0661,0.0709,0.075,0.0855,0.0853,0.0954,0.0961,0.0996,0.1074,0.0957,0.0991,0.0759,0.0644,0.0443,0.0234,0.0262,0.0052,0.0008,0.0042,0.004,0.0039,0.0036,0.007,0.0071,0.0072,0.0072,0,0.0666,0.0691,0.0781,0.0853,0.0891,0.0968,0.1076,0.1143,0.1159,0.126,0.1271,0.118,0.103,0.0781,0.0536,0.0333,0.0124,0.004,0.009,0.0054,-0.0075,-0.0072,-0.0124,-0.0126,-0.0127,-0.0129,-0.013,0,0.0701,0.0755,0.0867,0.0938,0.0981,0.1093,0.1179,0.1227,0.1314,0.1387,0.1454,0.1344,0.1293,0.0905,0.053,0.0178,0.0128,-0.0035,-0.0079,-0.0054,-0.0091,-0.0086,-0.0082,-0.0069,-0.0069,-0.007,-0.007,0,0.0774,0.0813,0.0892,0.1039,0.1147,0.1279,0.1408,0.1506,0.1586,0.1671,0.1759,0.1727,0.1366,0.1009,0.0513,0.0271,0.0018,-0.0055,-0.0026,-0.0022,-0.0008,-0.0043,-0.0039,-0.0073,-0.0073,-0.0073,-0.0073,-0.0073,0.0832,0.0902,0.1009,0.1152,0.1283,0.1456,0.158,0.172,0.1885,0.2028,0.1981,0.1939,0.1527,0.0897,0.0455,-0.0015,0.0012,-0.0157,-0.0153,-0.0149,-0.0126,-0.0115,-0.0197,-0.0197,-0.0197,-0.0197,-0.0198,0,0.0904,0.0986,0.1115,0.1288,0.1438,0.1504,0.173,0.1851,0.2058,0.2172,0.2236,0.1853,0.1446,0.0963,0.0268,-0.014,-0.0168,-0.0273,-0.0219,-0.0211,-0.0206,-0.0184,-0.0272,-0.0273,-0.0275,-0.0276,0,0,0.0944,0.1072,0.1136,0.1387,0.1519,0.1736,0.1876,0.2054,0.2183,0.2294,0.2274,0.2194,0.1609,0.1091,0.053,0.0125,0.0053,0.0047,0.0154,0.0293,0.0304,-0.009,-0.0042,0,0,0,0,0]}],[{"header":{"parameterUnit":"m.s-1","parameterCategory":2,"la1":30.2991,"la2":30.254,"lo1":-89.0895,"lo2":-89.0444,"dy":0.0017,"dx":0.0017,"nx":28,"ny":28,"refTime":"2024-06-06T09:00:00:Z","depth":"4","parameterNumber":2,"parameterNumberName":"U-component_of_CURRENTS"},"data":[0,0,0,0,0,0,0,0,0,0,0,0,0,0,0,0,0,0,0,0,0,0,0,0,0,0,0,0,0,0,0,0,0,0,0,0,0,0,0,0,0,0,0,0,0,0,0,0,0,0,0,0,0,0,0,0,0,0,0.2398,0.2399,0,0.2492,0.2493,0.2494,0.2572,0.2573,0.2574,0.2575,0.2671,0.2673,0.2674,0,0,0,0,0,0,0,0,0,0,0,0,0,0.2276,0.2277,0.2398,0.2399,0.2401,0.2492,0.2493,0.2494,0.2571,0.2573,0.2574,0.2575,0.2671,0.2673,0.2674,0,0,0,0,0,0,0,0,0,0,0,0,0,0.2342,0.2278,0.2398,0.2453,0.2459,0.2492,0.2493,0.2494,0.2571,0.2573,0.2574,0.2576,0.267,0.2672,0.2675,0.2655,0,0,0.2682,0.2683,0,0,0,0,0,0,0,0,0.2338,0.2346,0.2443,0.2449,0.2456,0.2525,0.2486,0.2549,0.2571,0.2525,0.2575,0.2577,0.2623,0.263,0.2639,0.2659,0.2663,0.2682,0.2683,0.2684,0.2685,0,0,0,0,0,0,0,0.2334,0.2342,0.2432,0.2445,0.2453,0.247,0.2481,0.2498,0.2561,0.2529,0.2536,0.2551,0.2627,0.2636,0.2642,0.2665,0.2682,0.2684,0.2685,0.2686,0.2822,0.2825,0,0,0,0,0,0,0.2327,0.2338,0.2429,0.2435,0.2404,0.2471,0.2483,0.2498,0.2561,0.2573,0.2549,0.2554,0.2632,0.2639,0.2645,0.2766,0.2684,0.2686,0.2688,0.282,0.2823,0.2825,0,0,0,0,0,0,0.2324,0.2334,0.2425,0.2391,0.2405,0.2472,0.2488,0.2499,0.2563,0.2577,0.2589,0.2608,0.2633,0.2642,0.2713,0.2765,0.2687,0.2689,0.2818,0.2821,0.2824,0.2916,0,0,0,0,0,0,0.232,0.2333,0.2365,0.2391,0.2406,0.2478,0.2487,0.25,0.2568,0.2576,0.263,0.2637,0.2635,0.2709,0.2715,0.2766,0.2691,0.2815,0.2819,0.2823,0.291,0.2922,0.2932,0,0,0,0,0,0.2316,0.2346,0.2365,0.2378,0.244,0.248,0.249,0.254,0.2569,0.2603,0.2648,0.2639,0.274,0.2713,0.2719,0.2772,0.2813,0.2818,0.2823,0.2905,0.292,0.2932,0,0,0,0,0,0,0.2313,0.2358,0.238,0.2425,0.2466,0.2496,0.254,0.2569,0.2629,0.2655,0.2666,0.2677,0.2757,0.2751,0.2721,0.2824,0.2775,0.2782,0.2836,0.2849,0.286,0.2858,0.2693,0,0,0,0,0,0.2325,0.2364,0.2401,0.2445,0.2469,0.2514,0.2547,0.2581,0.2625,0.2657,0.2693,0.2734,0.2772,0.2803,0.2829,0.2884,0.2891,0.2923,0.2934,0.2943,0.2946,0.3004,0.3021,0.2842,0.2842,0.2842,0,0,0.2337,0.2369,0.2394,0.2449,0.2487,0.2528,0.2539,0.2605,0.2654,0.2655,0.275,0.2777,0.2796,0.2862,0.2897,0.2873,0.3003,0.295,0.2958,0.2955,0.3012,0.3029,0.3044,0.2846,0.2845,0.2844,0,0,0.236,0.2411,0.2445,0.2484,0.2552,0.2577,0.2607,0.2666,0.2716,0.2794,0.2811,0.2872,0.2933,0.2954,0.297,0.3057,0.3059,0.3077,0.3135,0.3193,0.3208,0.3221,0.327,0.3286,0.3084,0.3084,0.3084,0,0.2378,0.2423,0.2463,0.2505,0.255,0.2604,0.2651,0.2701,0.2781,0.2826,0.2842,0.2952,0.2971,0.3043,0.308,0.3082,0.3117,0.3083,0.3207,0.322,0.3232,0.3279,0.3296,0.3089,0.3088,0.3088,0.3087,0,0.2408,0.2467,0.2496,0.2564,0.2615,0.2672,0.2736,0.2806,0.2874,0.2918,0.3026,0.3059,0.3125,0.3143,0.3143,0.324,0.324,0.3214,0.3172,0.3256,0.33,0.3316,0.3096,0.3094,0.3093,0.3091,0,0,0.2385,0.2496,0.2511,0.2554,0.2658,0.2691,0.2793,0.2881,0.2953,0.304,0.3132,0.3204,0.3239,0.3259,0.3274,0.3321,0.3441,0.3319,0.3319,0.3364,0.3585,0.3358,0.3353,0.3452,0.3455,0.3458,0.3587,0,0.2402,0.248,0.2541,0.263,0.2674,0.2765,0.2846,0.2939,0.303,0.3131,0.3195,0.3286,0.328,0.3332,0.3385,0.3434,0.3487,0.3409,0.3498,0.3501,0.3285,0.3364,0.3467,0.3599,0.3603,0.3606,0.3608,0,0.2401,0.2459,0.2547,0.2661,0.2692,0.2762,0.2903,0.2986,0.3132,0.3205,0.3314,0.3373,0.3485,0.3453,0.3591,0.3554,0.3584,0.3601,0.3606,0.3367,0.3302,0.3494,0.3637,0.3635,0.3632,0.363,0.3629,0,0.2335,0.2456,0.253,0.2572,0.2709,0.2786,0.2875,0.302,0.3104,0.3273,0.3358,0.3482,0.3577,0.364,0.3708,0.3676,0.3834,0.3785,0.3603,0.3589,0.3715,0.3699,0.3866,0.3865,0.3865,0.3865,0.3864,0,0.2301,0.2364,0.2515,0.2553,0.2652,0.2766,0.2891,0.2996,0.3157,0.325,0.3405,0.3483,0.3636,0.3741,0.3763,0.3741,0.3891,0.3623,0.3605,0.3753,0.374,0.3728,0.371,0.387,0.3869,0.3868,0.3867,0,0.221,0.2313,0.2403,0.2566,0.2626,0.2703,0.2896,0.2963,0.3148,0.3282,0.3348,0.3545,0.3672,0.3788,0.3901,0.3796,0.3799,0.3749,0.3928,0.3918,0.3503,0.3489,0.3547,0.354,0.3534,0.3529,0.3525,0,0.2165,0.2206,0.2392,0.2448,0.2536,0.2671,0.2747,0.2939,0.3013,0.3276,0.3312,0.3523,0.3627,0.3622,0.3742,0.3776,0.3722,0.3698,0.3557,0.3492,0.3471,0.3466,0.3461,0.3515,0.3514,0.3512,0.3511,0,0.2076,0.2168,0.2241,0.2357,0.2456,0.254,0.2677,0.2712,0.2922,0.3124,0.3202,0.3267,0.3404,0.3476,0.3542,0.3545,0.3693,0.3634,0.3645,0.3513,0.3455,0.3439,0.344,0.349,0.3493,0.3495,0.3496,0,0.2017,0.2044,0.2153,0.223,0.2339,0.2364,0.2463,0.2545,0.2646,0.2931,0.2949,0.3169,0.3368,0.3358,0.341,0.3411,0.334,0.3202,0.3234,0.3258,0.3098,0.2978,0.2859,0,0,0,0,0,0.1939,0.1942,0.2007,0.207,0.2162,0.2225,0.2379,0.2478,0.2691,0.2672,0.2804,0.291,0.2987,0.3095,0.3037,0.3272,0.3351,0.3186,0.3208,0.3376,0.34,0.3235,0,0,0,0,0,0,0.1883,0.1942,0.1949,0.1907,0.1916,0.1992,0.2081,0.2231,0.2238,0.2476,0.2543,0.2722,0.2853,0.2998,0.298,0.3012,0.2961,0.3327,0.3319,0.3363,0.3384,0.3403,0.3242,0,0,0,0,0]},{"header":{"parameterUnit":"m.s-1","parameterCategory":2,"la1":30.2991,"la2":30.254,"lo1":-89.0895,"lo2":-89.0444,"dy":0.0017,"dx":0.0017,"nx":28,"ny":28,"refTime":"2024-06-06T09:00:00:Z","depth":"4","parameterNumber":3,"parameterNumberName":"V-component_of_CURRENTS"},"data":[0,0,0,0,0,0,0,0,0,0,0,0,0,0,0,0,0,0,0,0,0,0,0,0,0,0,0,0,0,0,0,0,0,0,0,0,0,0,0,0,0,0,0,0,0,0,0,0,0,0,0,0,0,0,0,0,0,0,0.0103,0.0102,0,0.0056,0.0056,0.0055,0.0023,0.0023,0.0022,0.0022,-0.0036,-0.0037,-0.0039,0,0,0,0,0,0,0,0,0,0,0,0,0,0.0123,0.0123,0.0103,0.0102,0.0102,0.0056,0.0055,0.0055,0.0023,0.0023,0.0022,0.0022,-0.0036,-0.0037,-0.0039,0,0,0,0,0,0,0,0,0,0,0,0,0,0.0098,0.0123,0.0103,0.0081,0.0079,0.0056,0.0055,0.0055,0.0023,0.0023,0.0022,0.0022,-0.0035,-0.0037,-0.0039,-0.0048,0,0,-0.0046,-0.0047,0,0,0,0,0,0,0,0,0.01,0.0097,0.0085,0.0083,0.008,0.0046,0.0041,0.002,0.0023,0.0043,0.0022,0.0022,-0.0009,-0.0013,-0.0023,-0.0051,-0.0053,-0.0046,-0.0047,-0.0048,-0.0049,0,0,0,0,0,0,0,0.0101,0.0099,0.0083,0.0084,0.0081,0.0059,0.0056,0.0037,0.0018,0.0041,0.0039,0.0035,-0.0011,-0.0021,-0.0024,-0.0054,-0.0046,-0.0048,-0.0049,-0.005,-0.0081,-0.008,0,0,0,0,0,0,0.0112,0.0101,0.0085,0.0082,0.0091,0.006,0.0056,0.0056,0.0018,0.0013,0.0036,0.0034,-0.0017,-0.0022,-0.0027,-0.0016,-0.0048,-0.005,-0.0051,-0.0081,-0.0081,-0.008,0,0,0,0,0,0,0.0112,0.0111,0.0087,0.0091,0.0086,0.006,0.0061,0.0055,0.005,0.0014,0.0008,0.0036,-0.0017,-0.0024,-0.0037,-0.0019,-0.0051,-0.0053,-0.0082,-0.0081,-0.008,-0.001,0,0,0,0,0,0,0.0113,0.0111,0.0117,0.0092,0.0087,0.0084,0.0061,0.0055,0.0048,0.0046,0.0013,0.0007,-0.0018,-0.0034,-0.0039,-0.0023,-0.0055,-0.0082,-0.0081,-0.0081,-0.0012,-0.0007,-0.0001,0,0,0,0,0,0.0114,0.0126,0.0117,0.0115,0.0094,0.0084,0.008,0.0059,0.0049,0.0052,0.0028,0.0008,-0.0032,-0.0035,-0.0042,-0.0025,-0.0083,-0.0082,-0.0081,-0.0015,-0.0008,-0.0002,0,0,0,0,0,0,0.0137,0.0123,0.0113,0.012,0.0107,0.008,0.0081,0.0066,0.0049,0.0048,0.0012,0.0005,-0.0003,-0.0025,-0.0027,-0.0033,-0.006,-0.006,-0.0008,-0.0001,0.0004,0.0024,-0.0056,0,0,0,0,0,0.0145,0.0152,0.0131,0.0138,0.0133,0.0108,0.0101,0.0089,0.007,0.0062,0.0038,0.0014,-0.0004,-0.0011,-0.0034,-0.0034,-0.0067,-0.0029,-0.0023,-0.0018,-0.0007,-0.0045,-0.0041,-0.0077,-0.0077,-0.0077,0,0,0.0156,0.0149,0.0153,0.0143,0.0131,0.0138,0.0104,0.0102,0.0111,0.0059,0.0062,0.0029,-0.0002,-0.0005,-0.001,-0.0019,-0.0026,-0.0017,-0.0012,-0.0004,-0.0043,-0.004,-0.0037,-0.0076,-0.0076,-0.0076,0,0,0.0185,0.0176,0.0192,0.0185,0.0175,0.0163,0.0166,0.0144,0.0137,0.0133,0.0098,0.0078,0.0051,0.0034,0.0021,0.0044,-0.0,0.0036,0.0087,0.005,0.0053,0.0055,0.0015,0.0013,0.0044,0.0044,0.0045,0,0.0198,0.0217,0.0195,0.0208,0.0214,0.018,0.0203,0.0191,0.0168,0.0169,0.0145,0.0104,0.0073,0.0074,0.008,0.0058,0.0026,0.0066,0.0058,0.0059,0.006,0.0018,0.0015,0.0048,0.0048,0.0047,0.0047,0,0.0237,0.0254,0.0264,0.0274,0.0277,0.029,0.0275,0.0276,0.0261,0.0244,0.0234,0.0185,0.0164,0.0148,0.0121,0.0119,0.009,0.0065,0.0044,0.0068,0.0022,0.0018,0.0053,0.0052,0.0051,0.005,0,0,0.0267,0.0289,0.0294,0.0319,0.0316,0.0329,0.0346,0.0354,0.0374,0.0334,0.0352,0.0304,0.027,0.0253,0.0211,0.0179,0.015,0.0133,0.0129,0.0099,0.0065,0.0044,0.0036,0.0122,0.0122,0.0122,0.0029,0,0.0308,0.0356,0.0355,0.0411,0.0438,0.0424,0.0449,0.045,0.0436,0.044,0.0386,0.038,0.0313,0.0308,0.0263,0.0181,0.0142,0.0177,0.0041,0.0038,0.0021,0.0032,0.0121,0.0025,0.0024,0.0023,0.0023,0,0.0349,0.0381,0.0443,0.0495,0.0507,0.0537,0.0578,0.0597,0.0585,0.0573,0.0544,0.0492,0.0446,0.0385,0.0254,0.0279,0.0182,0.0109,0.0103,0.0058,0.0009,-0.0005,0.0014,0.0015,0.0015,0.0016,0.0016,0,0.039,0.0446,0.0507,0.0521,0.0568,0.0605,0.0634,0.0641,0.0676,0.0662,0.0677,0.0592,0.0569,0.0436,0.0276,0.0266,0.0124,0.0088,-0.0024,-0.0028,-0.0013,-0.0014,-0.0005,-0.0005,-0.0005,-0.0004,-0.0004,0,0.0434,0.0485,0.0538,0.0571,0.0662,0.0669,0.0755,0.0764,0.0791,0.0843,0.0756,0.0764,0.0581,0.0473,0.0311,0.0132,0.0145,-0.0011,-0.0049,0.0018,0.0021,-0.0017,-0.0017,-0.0008,-0.0007,-0.0006,-0.0006,0,0.0469,0.0499,0.0578,0.0649,0.0687,0.0752,0.0851,0.0902,0.0917,0.0982,0.0987,0.0898,0.0754,0.0555,0.0339,0.0193,0.0014,-0.0055,0.0036,0.0004,-0.0124,-0.0119,-0.0186,-0.0187,-0.0188,-0.0189,-0.019,0,0.0488,0.0532,0.0641,0.0704,0.0746,0.0847,0.0919,0.0967,0.1026,0.1063,0.1098,0.0988,0.0898,0.0588,0.0358,0.0046,-0.0007,-0.0108,-0.0124,-0.011,-0.0141,-0.0134,-0.0128,-0.0192,-0.0193,-0.0193,-0.0193,0,0.0527,0.0568,0.0637,0.0765,0.086,0.0973,0.1079,0.1133,0.1193,0.1206,0.1195,0.1034,0.0869,0.0602,0.0359,0.0132,-0.0047,-0.0122,-0.0121,-0.0137,-0.0119,-0.0146,-0.0139,-0.0197,-0.0197,-0.0196,-0.0196,0,0.0561,0.0613,0.0707,0.0824,0.0947,0.1068,0.112,0.1195,0.1256,0.1287,0.1276,0.1095,0.0987,0.0646,0.0423,0.0196,0.0126,0.0037,0.0028,0.0029,0.0107,0.0163,0.0147,0,0,0,0,0,0.0588,0.0653,0.0757,0.0887,0.1007,0.1088,0.1216,0.1255,0.1312,0.1318,0.1304,0.1149,0.0826,0.0686,0.0456,0.0374,0.0069,0.0092,-0.0042,-0.022,-0.0216,-0.0164,0,0,0,0,0,0,0.0607,0.0705,0.0756,0.0919,0.1015,0.1158,0.1245,0.1286,0.1291,0.1307,0.1144,0.107,0.0757,0.0959,0.0446,0.0377,0.0254,-0.0054,-0.006,-0.0223,-0.0219,-0.0215,-0.016,0,0,0,0,0]}]]